Regional Weather Roundup
Issued by NWS

Home | Current Version | Previous Version | Text Only | Print | Product List | Glossary Off
Versions: 1 2 3 4 5 6 7 8 9 10 11 12 13 14 15 16 17 18 19 20 21 22 23 24 25 26 27 28 29 30 31 32 33 34 35 36 37 38 39 40 41 42 43 44 45 46 47 48 49 50

000
ASUS43 KMPX 251001
RWRMN
WEATHER ROUNDUP FOR MINNESOTA
NATIONAL WEATHER SERVICE TWIN CITIES/CHANHASSEN MN
400 AM CST SAT FEB 25 2017


NOTE: "FAIR" INDICATES FEW OR NO CLOUDS BELOW 12,000 FEET WITH NO
SIGNIFICANT WEATHER AND/OR OBSTRUCTIONS TO VISIBILITY. N/A MEANS
CURRENT SKY AND/OR WEATHER CONDITIONS ARE NOT AVAILABLE.

MNZ060>063-068>070-251100-
   Twin Cities Metro

CITY           SKY/WX    TMP DP  RH WIND       PRES   REMARKS
TWIN CITIES    CLEAR     16   4  59 NW16      29.90S WCI   1
ST PAUL        CLEAR     16   5  62 NW17      29.91S WCI   0
CRYSTAL        CLEAR     16   5  62 NW14      29.89F WCI   2
BLAINE         CLEAR     16   7  67 NW8       29.89S WCI   5
LAKEVILLE      CLEAR     14   7  73 NW9       29.89S WCI   2
EDEN PRAIRIE   PTCLDY    17   6  62 NW14      29.90S WCI   3
SOUTH ST PAUL  CLEAR     17   4  56 NW14      29.89F WCI   3
LAKE ELMO      FAIR      18   5  57 NW13G20   29.88S WCI   4
$$
MNZ001>005-007-008-013>017-022>024-027-028-251100-
   Northwest Minnesota

CITY           SKY/WX    TMP DP  RH WIND       PRES   REMARKS
BEMIDJI        CLEAR      5   1  83 W7        29.93F WCI  -7
HALLOCK        CLOUDY    10   9  92 S6        29.97F WCI   1
ROSEAU         CLEAR      5   0  78 CALM      29.96F
WARROAD        PTCLDY     5   0  78 W5        29.95F WCI  -4
THIEF RVR FALL CLEAR      9   7  92 SW5       29.99F WCI   1
CROOKSTON      CLOUDY    16  12  86 SW5       30.01F WCI   9
FOSSTON        CLEAR      7   5  92 W5        29.97F WCI  -2
DETROIT LAKES  CLEAR     14   9  79 NW7       29.98F WCI   4
MOORHEAD       CLEAR     16  12  86 CALM      30.03F
PARK RAPIDS    CLEAR      8  -1  66 NW10      29.93F WCI  -6
MAHNOMEN       FAIR      11   7  84 W6        29.98F WCI   2
$$
MNZ006-009>011-018-025>026-251100-
   North Central Minnesota

CITY           SKY/WX    TMP DP  RH WIND       PRES   REMARKS
BAUDETTE       CLEAR      3  -2  79 NW8       29.93F WCI -10
FLAG ISLAND    CLEAR      3   0  85 NW12      29.93F WCI -13
INTL FALLS     CLEAR      3  -2  79 NW7       29.88F WCI  -9
WASKISH        CLEAR      7   1  78 W8        29.93F WCI  -6
BIG FORK       CLEAR      5   0  78 CALM      29.88F
LONGVILLE      CLEAR      7   1  78 NW8       29.91F WCI  -6
GRAND RAPIDS   CLEAR      6   2  83 NW13      29.89F WCI -10
CRANE LAKE     CLEAR      3   1  92 NW3       29.88S
ORR            CLEAR      3   0  85 NW6       29.83S WCI  -8
COOK           CLEAR      3   1  92 NW6       29.85S WCI  -8
WALKER         FAIR       6   1  76 NW8       29.92F WCI  -6
$$
MNZ012-019>021-037-251100-
   Northeast Minnesota

CITY           SKY/WX    TMP DP  RH WIND       PRES   REMARKS
DULUTH         PTCLDY     8   3  80 NW13G21   29.78R WCI  -8
ELY            CLOUDY     7   1  78 NW10G18   29.78S WCI  -8
HIBBING        MOCLDY     5   1  83 NW14      29.83F WCI -12
EVELETH        LGT SNOW   7   1  75 NW12G18   29.83S WCI  -8
DULUTH HARBOR  CLEAR     14   7  73 NW21G26   29.86R WCI  -4
TWO HARBORS    CLEAR     12   3  67 NW9G18    29.76S WCI   0
SILVER BAY     CLOUDY    10   3  72 NW12G23   29.72F WCI  -4
GRAND MARAIS     N/A     13   3  64 N22G40    29.68F WCI  -6
G MARAIS ARPRT FLURRIES   5   0  78 NW13G18   29.63F WCI -12
$$
MNZ029>031-032-039>041-046>048-054>057-064-251100-
   West Central Minnesota

CITY           SKY/WX    TMP DP  RH WIND       PRES   REMARKS
FERGUS FALLS   CLEAR     12  10  92 NW9       30.06S WCI   0
WHEATON        CLEAR     16  12  86 W6        30.05F WCI   7
MORRIS         CLEAR     16  12  86 NW12      30.00S WCI   3
ALEXANDRIA     CLEAR     13   5  70 NW13      29.96F WCI  -2
ELBOW LAKE     FAIR      15   9  77 NW10      30.00F WCI   2
WADENA         CLEAR     10   3  72 NW10      29.95S WCI  -3
GLENWOOD       CLEAR     12   7  79 NW13      29.96S WCI  -3
APPLETON       CLEAR     18  12  79 NW10      30.02F WCI   6
BENSON         CLEAR     18   7  62 N9        30.01F WCI   6
ORTONVILLE       N/A     16  12  86 NW9       30.02F WCI   4
MADISON        CLEAR     19  16  86 NW9       30.04F WCI   9
WILLMAR        FAIR      16  10  79 NW14      29.98F WCI   1
$$
MNZ033>034-036-042>043-049>051-058-059-251100-
   Central Minnesota

CITY           SKY/WX    TMP DP  RH WIND       PRES   REMARKS
ST CLOUD       CLEAR     14   5  67 NW12      29.93S WCI   0
SAUK CENTRE    FAIR      13   5  70 NW10G20   29.95S WCI   0
PAYNESVILLE    CLEAR     15   7  70 NW12G17   29.95F WCI   2
AITKIN         CLEAR     12   3  67 NW6       29.89S WCI   3
PINE RIVER     CLEAR      9   1  72 NW7       29.96S WCI  -3
BRAINERD       CLEAR     10   2  69 NW12      29.92F WCI  -5
STAPLES        CLEAR     10   3  72 NW12      29.94S WCI  -4
LONG PRAIRIE   FAIR      12   5  73 W12       29.94F WCI  -2
LITTLE FALLS   CLEAR     12   3  67 NW8       29.94F WCI   1
LITCHFIELD     CLEAR     16   9  73 NW9       29.95S WCI   4
BUFFALO        CLEAR     15   6  67 NW9G17    29.94S WCI   3
MAPLE LAKE     CLEAR     15   9  74 NW12      29.94R WCI   2
HUTCHINSON     CLEAR     17   9  72 NW15G23   29.95S WCI   2
$$
MNZ037-044-045-052-053-251100-
   East Central Minnesota

CITY           SKY/WX    TMP DP  RH WIND       PRES   REMARKS
PRINCETON      CLEAR     16   7  67 NW14G20   29.91S WCI   1
MORA           CLEAR     14   5  67 NW15G25   29.90S WCI  -1
CAMBRIDGE      CLEAR     16   5  62 NW13G18   29.88S WCI   2
RUSH CITY      CLEAR     14   3  62 NW15      29.88S WCI  -1
MOOSE LAKE     CLEAR     10   3  72 NW8       29.84S WCI  -1
HINCKLEY       FAIR      14   5  67 NW16G23   29.86S WCI  -2
CLOQUET        CLEAR      9   1  72 NW12G21   29.82R WCI  -6
MCGREGOR       CLEAR     10   5  79 NW10      29.88S WCI  -3
$$
MNZ071>073-080-081-089-090-097-098-251100-
   Southwest Minnesota

CITY           SKY/WX    TMP DP  RH WIND       PRES   REMARKS
MONTEVIDEO     CLEAR     16  10  79 N9        30.03S WCI   4
CANBY          CLEAR     18  14  85 NW9       30.04F WCI   7
MARSHALL       CLEAR     16  13  88 NW15      30.02S WCI   1
REDWOOD FALLS  CLEAR     17   5  59 NW13      29.99S WCI   4
OLIVIA         CLEAR     18  10  73 NW14G23   29.98S WCI   4
PIPESTONE      CLEAR     18  10  73 NW9       30.00F WCI   6
WINDOM         CLEAR     16   7  67 NW16G24   29.97S WCI   0
WORTHINGTON    CLEAR     15   9  76 NW16      30.00S WCI  -1
JACKSON        CLEAR     14   7  73 NW18      29.97S WCI  -3
TRACY          CLEAR     18  13  82 NW15      30.01S WCI   3
SLAYTON        CLEAR     16  11  82 NW16      30.00S WCI   0
$$
MNZ065>067-074>077-082>085-091>093-251100-
   South Central Minnesota

CITY           SKY/WX    TMP DP  RH WIND       PRES   REMARKS
MANKATO          N/A     16  10  77 NW15G23   29.94S WCI   1
NEW ULM        CLEAR     16   7  67 NW21      29.96S WCI  -2
ST JAMES       CLEAR     16   9  73 NW18      29.98R WCI  -1
FAIRMONT       CLEAR     14   8  77 NW18      29.96S WCI  -3
GLENCOE        CLEAR     18  11  75 NW13G20   29.94R WCI   4
FARIBAULT      CLOUDY    18   9  68 NW12      29.90S WCI   5
OWATONNA       MOCLDY    16   7  67 NW21      29.88S WCI  -2
WASECA         PTCLDY    18  10  73 NW14G20   29.92S WCI   4
ALBERT LEA     PTCLDY    16   7  67 NW8       29.88S WCI   5
$$
MNZ078>079-086>088-094>096-251100-
   Southeast Minnesota

CITY           SKY/WX    TMP DP  RH WIND       PRES   REMARKS
ROCHESTER      CLEAR     11   5  77 NW23      29.83R WCI  -9
RED WING       CLEAR     16   1  53 NW9       29.87R WCI   4
STANTON        CLEAR     16   6  62 NW18G26   29.88R WCI   0
WINONA         CLEAR     18  10  73 NW10      29.84R WCI   6
AUSTIN         CLEAR     12   5  73 NW12      29.86S WCI  -2
PRESTON        CLOUDY    15   7  72 NW20G25   29.81R WCI  -3
$$
ABBREVIATIONS USED IN REMARKS
   TC - TEMPERATURES IN CELSIUS
  WCI - WIND CHILL INDEX
   HX - HEAT INDEX
  VSB - VISIBILITY
$$




USA.gov is the U.S. government's official web portal to all federal, state and local government web resources and services.